Regional Weather Roundup
Issued by NWS

Home | Current Version | Previous Version | Text Only | Print | Product List | Glossary On
Versions: 1 2 3 4 5 6 7 8 9 10 11 12 13 14 15 16 17 18 19 20 21 22 23 24 25 26 27 28 29 30 31 32 33 34 35 36 37 38 39 40 41 42 43 44 45 46 47 48 49 50
000
ASUS44 KLUB 230010
RWRTX
WEST TEXAS WEATHER ROUNDUP
NATIONAL WEATHER SERVICE LUBBOCK TX
600 PM CST MON DEC 22 2014

NOTE: "FAIR" INDICATES FEW OR NO CLOUDS BELOW 12,000 FEET WITH NO
SIGNIFICANT WEATHER AND/OR OBSTRUCTIONS TO VISIBILITY.

TXZ004-006>008-010-012-014-016-OKZ002-230100-
TEXAS PANHANDLE/OKLAHOMA PANHANDLE

CITY           SKY/WX    TMP DP  RH WIND       PRES   REMARKS
AMARILLO       CLOUDY    41  29  62 N8        29.75R
BORGER         CLOUDY    47  21  35 W7        29.71R
CANADIAN       CLOUDY    47  31  54 CALM      29.67F
DALHART        CLOUDY    36  33  89 W13       29.74F WCI  27
DUMAS          CLOUDY    37  32  82 W10       29.72S WCI  30
GUYMON         CLOUDY    41  27  57 W9        29.69R
HEREFORD       CLOUDY    41  33  73 NE21G26   29.74R
PAMPA          CLOUDY    42  25  50 W6        29.71R
PERRYTON       CLOUDY    42  29  62 W8        29.69R
$$

TXZ026-029-035-045-048-230100-
SOUTHERN PANHANDLE/SOUTH PLAINS/ROLLING PLAINS

CITY           SKY/WX    TMP DP  RH WIND       PRES   REMARKS
CHILDRESS      CLOUDY    54  29  38 N8        29.68R
SEMINOLE       MOCLDY    53  32  45 E6        29.66R
LUBBOCK        CLOUDY    49  27  42 NE8       29.66F
PLAINVIEW      CLOUDY    47  31  52 NE8       29.68F
SNYDER         CLOUDY    54  35  48 E6        29.68R
$$

TXZ052-054-060>062-072-078-127-140-154-169-230100-
PERMIAN BASIN/CONCHO VALLEY/BIG COUNTRY/EDWARDS PLATEAU

CITY           SKY/WX    TMP DP  RH WIND       PRES   REMARKS
ABILENE        CLOUDY    57  36  45 N9        29.69R
BIG SPRING     CLOUDY    59  33  38 NE9       29.68S
BRADY          CLEAR     59  39  47 N8        29.65R
BROWNWOOD      CLOUDY    59  37  44 N6        29.67R
JUNCTION       CLOUDY    62  41  46 CALM      29.63R
MIDLAND        PTCLDY    58  35  42 E9        29.65R
ODESSA         PTCLDY    57  33  40 E8        29.65R
SAN ANGELO     CLOUDY    62  35  36 NE6       29.64R
SONORA         MOCLDY    64  36  34 CALM      29.67S
SWEETWATER     CLOUDY    56  34  43 NE8       29.70S
WINK           MOCLDY    67  30  25 SW10      29.59F
$$

TXZ055-058-074-075-080-082-230100-
FAR WEST/SOUTHWEST MOUNTAINS/TRANS PECOS

CITY           SKY/WX    TMP DP  RH WIND       PRES   REMARKS
ALPINE         CLEAR     60  29  30 W8        29.77S
DRYDEN           N/A     74  30  19 SW13      29.59F
EL PASO        PTCLDY    65  32  29 NW6       29.71R
FORT STOCKTON  CLEAR     66  30  26 NW3       29.64S
MARFA          CLEAR     57  28  33 SW12      29.76F
PECOS          PTCLDY    67  32  27 SW16      29.62S
PRESIDIO       FAIR      69  32  25 E7        29.67F
$$

TXZ014-016-019-021>030-083-230100
TEXAS TECH WEST TEXAS MESONET/TEXAS PANHANDLE/NORTHERN SOUTH PLAINS

CITY           SKY/WX    TMP DP  RH WIND       PRES   REMARKS
ABERNATHY 5ENE   N/A     46  28  49 NE7       29.68F
AMARILLO 9NNE    N/A     41  28  60 NW2       29.74F
AMARILLO 7SSE    N/A     37  32  82 N10       29.75F WCI  30
AMHERST 1NE      N/A     46  28  49 NE8       29.69R
BOOTLEG 11WNW    N/A     33  31  92 NE16      29.75R WCI  23
CANADIAN 6E      N/A     44  29  55 NW2       29.66F
CAPROCK CYN SP   N/A     51  23  33 N9        29.71R
CHILDRESS 2NNE   N/A     52  30  41 N10       29.68R
CLARENDON 2WSW   N/A     48  24  38 NW12      29.72R
CLAUDE 12SW      N/A     37  32  81 N16       29.73S WCI  28
DIMMITT 2NE      N/A     43  24  47 N20       29.71S
FLOYDADA 2NNE    N/A     46  26  44 NE6       29.69S
FRIONA 2NE       N/A     42  26  53 NE20      29.72S
GOODLETT 3W      N/A     53  30  41 NW8       29.68R
HART 3N          N/A     44  28  53 N8        29.71R
HEREFORD 2NW     N/A     39  29  68 N20       29.72R WCI  29
MCLEAN 1E        N/A     47  25  41 NW10      29.67F
MEMPHIS 1NE      N/A     53  26  35 NW7       29.70R
MULESHOE 2SSW    N/A     45  29  53 NE7       29.69R
OLTON 6S         N/A     45  28  51 N7        29.69R
PALO DURO SP   LGT RAIN  37  32  83 N7        29.77R WCI  31
PAMPA 2E         N/A     44  26  47 W5        29.69S
PLAINVIEW 1S     N/A     47  29  50 N8        29.69S
SILVERTON 7ESE   N/A     47  24  41 N12       29.71R
TULIA 2ENE       N/A     45  26  48 N12       29.71R
TURKEY 2WSW      N/A     51  23  34 N8        29.70R
UMBARGER 3NNE    N/A     34  32  91 N12       29.76R WCI  26
$$

TXZ033>036-039>041-045>048-230100
TEXAS TECH WEST TEXAS MESONET/SOUTH PLAINS

CITY           SKY/WX    TMP DP  RH WIND       PRES   REMARKS
AIKEN 3WSW       N/A     46  29  53 NE9       29.70F
ANTON 6SSW       N/A     48  28  45 NE13      29.66S
BROWNFIELD 2S    N/A     48  32  53 E7        29.65F
DENVR CTY 7WNW   N/A     48  29  47 E7        29.64S
GAIL 2ESE        N/A     53  33  47 NE6       29.65F
LAMESA 2SE       N/A     52  32  46 NE6       29.66S
LEVELLAND 4S     N/A     48  27  43 NE12      29.66S
LUBBOCK 3WNW     N/A     50  26  40 NE8       29.67F
MORTON 1ENE      N/A     47  27  45 NE13      29.67R
ODONNELL 1N      N/A     51  31  45 E7        29.65F
PLAINS 3N        N/A     49  29  46 E8        29.65S
RALLS 1SE        N/A     48  27  43 NE9       29.69S
REESE CENTER     N/A     48  26  42 NE14      29.66F
SEAGRAVES 1SW    N/A     50  32  49 E3        29.65S
SEMINOLE 2NNE    N/A     51  31  45 NE8       29.65R
SLATON 2NE       N/A     49  25  39 NE10      29.67S
SNYDER 3E        N/A     53  35  50 E5        29.67R
SUNDOWN 8SW      N/A     48  29  48 NE7       29.65S
TAHOKA 3NNE      N/A     49  28  44 NE9       29.66S
WOLFFORTH 6SSW   N/A     49  28  43 NE9       29.67R
$$

TXZ031-032-036>038-042>044-230100-
TEXAS TECH WEST TEXAS MESONET/ROLLING PLAINS

CITY           SKY/WX    TMP DP  RH WIND       PRES   REMARKS
ASPERMONT 3NE    N/A     55  31  40 N6        29.68S
FLUVANNA 3WNW    N/A     51  34  51 E5        29.67R
GRAHAM 5SSW      N/A     52  29  40 NE9       29.66S
GUTHRIE 10WSW    N/A     53  28  39 N5        29.68R
HASKELL 1NW      N/A     53  31  43 N7        29.68R
JAYTON 1SSE      N/A     54  28  37 NE6       29.68S
KNOX CITY 3NW    N/A     52  32  46 NW6       29.70R
LK A HENRY 1NW   N/A     53  30  41 NE8       29.66F
NORTHFIELD 1S    N/A     53  27  37 N7        29.68S
ODELL 4ENE       N/A     52  34  49 NW7       29.68R
PADUCAH 10SW     N/A     50  27  40 CALM      29.67S
POST 1NE         N/A     52  30  41 NE9       29.67S
RRING SPRGS 3N   N/A     49  28  45 N5        29.69S
SEYMOUR 3NW      N/A     46  37  70 W3        29.67R
SPUR 1W          N/A     51  26  36 N6        29.68S
WHITE RVR 6NE    N/A     50  29  44 N12       29.67S
$$

TXZ052-054-060>062-072-078-127-140-154-169-230100-
TEXAS TECH WEST TEXAS MESONET/PERMIAN BASIN/
CONCHO VALLEY/BIG COUNTRY/EDWARDS PLATEAU

CITY           SKY/WX    TMP DP  RH WIND       PRES   REMARKS
COYANOSA 2N      N/A     67  32  26 W2        29.62S
JUNCTION 1SSW    N/A     63  39  41 NE2       29.64S
MERTZON 3NNE     N/A     61  35  38 NE5       29.66R
SAN ANGELO 7NW   N/A     60  33  35 N1        29.65R
STRLNG CT 4WSW   N/A     56  34  43 NE2       29.68R
ST LAWRNCE 5SW   N/A     58  32  37 E6        29.65R
SWEETWATR 11SW   N/A     54  35  48 NE7       29.69R
WALL 1E          N/A     60  34  37 NE6       29.66R
$$

TXZ055-058-074-075-080-082-230100-
TEXAS TECH WEST TEXAS MESONET/FAR WEST/SOUTHWEST MOUNTAINS/TRANS PECOS

CITY           SKY/WX    TMP DP  RH WIND       PRES   REMARKS
PRSMN GAP BBNP   N/A     69  32  25 SW7       29.65F
$$



USA.gov is the U.S. government's official web portal to all federal, state and local government web resources and services.